| time (UTC) | temp F | wind direction | speed MPH | gust MPH | rain 1hr in | rain 24hr in | rain mn in | humidity % | barometer mb |
| 20260509224750 | 73 | 349 | 5.0 | 11.0 | 0.00 | 0.00 | 0.00 | 28 | 1016.6 |
| 20260509224247 | 73 | 302 | 5.0 | 11.0 | 0.00 | 0.00 | 0.00 | 28 | 1017.1 |
| 20260509223744 | 73 | 321 | 5.0 | 12.0 | 0.00 | 0.00 | 0.00 | 27 | 1017.1 |
| 20260509223241 | 73 | 339 | 5.0 | 15.0 | 0.00 | 0.00 | 0.00 | 26 | 1017.1 |
| 20260509222737 | 73 | 318 | 4.0 | 15.0 | 0.00 | 0.00 | 0.00 | 27 | 1017.1 |
| 20260509222233 | 73 | 321 | 4.0 | 13.0 | 0.00 | 0.00 | 0.00 | 25 | 1017.1 |
| 20260509221728 | 73 | 339 | 6.0 | 15.0 | 0.00 | 0.00 | 0.00 | 26 | 1017.1 |
| 20260509221225 | 73 | 352 | 6.0 | 15.0 | 0.00 | 0.00 | 0.00 | 27 | 1017.1 |
| 20260509220721 | 73 | 288 | 5.0 | 13.0 | 0.00 | 0.00 | 0.00 | 25 | 1017.1 |
| 20260509220217 | 73 | 28 | 4.0 | 10.0 | 0.00 | 0.00 | 0.00 | 28 | 1017.1 |
| 20260509215713 | 73 | 335 | 4.0 | 10.0 | 0.00 | 0.00 | 0.00 | 26 | 1017.4 |
| 20260509215210 | 73 | 352 | 4.0 | 10.0 | 0.00 | 0.00 | 0.00 | 29 | 1017.4 |
| 20260509214707 | 73 | 325 | 4.0 | 10.0 | 0.00 | 0.00 | 0.00 | 25 | 1017.4 |
| 20260509214204 | 73 | 312 | 3.0 | 9.0 | 0.00 | 0.00 | 0.00 | 26 | 1017.4 |
| 20260509213701 | 73 | 338 | 2.0 | 8.0 | 0.00 | 0.00 | 0.00 | 27 | 1017.4 |
| 20260509213156 | 73 | 347 | 3.0 | 8.0 | 0.00 | 0.00 | 0.00 | 26 | 1017.4 |
| 20260509212654 | 73 | 277 | 2.0 | 7.0 | 0.00 | 0.00 | 0.00 | 27 | 1017.7 |
| 20260509212151 | 73 | 291 | 3.0 | 10.0 | 0.00 | 0.00 | 0.00 | 26 | 1017.7 |
| 20260509211647 | 73 | 310 | 3.0 | 10.0 | 0.00 | 0.00 | 0.00 | 28 | 1017.7 |
| 20260509211144 | 73 | 350 | 3.0 | 10.0 | 0.00 | 0.00 | 0.00 | 30 | 1017.7 |
| 20260509210641 | 73 | 34 | 4.0 | 12.0 | 0.00 | 0.00 | 0.00 | 28 | 1017.7 |
| 20260509210138 | 73 | 249 | 4.0 | 12.0 | 0.00 | 0.00 | 0.00 | 29 | 1017.7 |
| 20260509205632 | 73 | 327 | 5.0 | 11.0 | 0.00 | 0.00 | 0.00 | 29 | 1017.7 |
| 20260509205127 | 72 | 267 | 3.0 | 11.0 | 0.00 | 0.00 | 0.00 | 31 | 1017.7 |
| 20260509204623 | 72 | 346 | 2.0 | 8.0 | 0.00 | 0.00 | 0.00 | 30 | 1017.7 |
| 20260509204120 | 72 | 306 | 1.0 | 4.0 | 0.00 | 0.00 | 0.00 | 34 | 1017.7 |
| 20260509203616 | 72 | 287 | 3.0 | 9.0 | 0.00 | 0.00 | 0.00 | 33 | 1018.1 |
| 20260509203114 | 71 | 335 | 4.0 | 9.0 | 0.00 | 0.00 | 0.00 | 33 | 1018.1 |
| 20260509202609 | 71 | 333 | 3.0 | 9.0 | 0.00 | 0.00 | 0.00 | 33 | 1018.1 |
| 20260509202104 | 71 | 0 | 4.0 | 10.0 | 0.00 | 0.00 | 0.00 | 30 | 1018.1 |
| 20260509201559 | 71 | 308 | 3.0 | 10.0 | 0.00 | 0.00 | 0.00 | 33 | 1018.5 |
| 20260509201057 | 71 | 304 | 3.0 | 8.0 | 0.00 | 0.00 | 0.00 | 35 | 1018.1 |
| 20260509200557 | 71 | 351 | 2.0 | 8.0 | 0.00 | 0.00 | 0.00 | 35 | 1018.1 |
| 20260509200053 | 71 | 318 | 2.0 | 7.0 | 0.00 | 0.00 | 0.00 | 36 | 1018.5 |
| 20260509195549 | 71 | 267 | 3.0 | 7.0 | 0.00 | 0.00 | 0.00 | 38 | 1018.5 |
| 20260509195044 | 71 | 326 | 2.0 | 8.0 | 0.00 | 0.00 | 0.00 | 34 | 1018.5 |
| 20260509194538 | 71 | 21 | 3.0 | 8.0 | 0.00 | 0.00 | 0.00 | 35 | 1018.5 |
| 20260509194036 | 71 | 338 | 2.0 | 7.0 | 0.00 | 0.00 | 0.00 | 34 | 1018.5 |
| 20260509193537 | 71 | 229 | 2.0 | 8.0 | 0.00 | 0.00 | 0.00 | 40 | 1018.9 |
| 20260509193033 | 70 | 337 | 4.0 | 8.0 | 0.00 | 0.00 | 0.00 | 36 | 1018.9 |
| 20260509192530 | 70 | 313 | 3.0 | 14.0 | 0.00 | 0.00 | 0.00 | 35 | 1018.9 |
| 20260509192025 | 70 | 345 | 2.0 | 14.0 | 0.00 | 0.00 | 0.00 | 36 | 1018.9 |
| 20260509191520 | 70 | 342 | 2.0 | 6.0 | 0.00 | 0.00 | 0.00 | 38 | 1018.9 |
| 20260509191016 | 70 | 309 | 3.0 | 11.0 | 0.00 | 0.00 | 0.00 | 41 | 1019.2 |
| 20260509190513 | 70 | 190 | 2.0 | 11.0 | 0.00 | 0.00 | 0.00 | 45 | 1019.2 |
| 20260509190011 | 69 | 354 | 3.0 | 9.0 | 0.00 | 0.00 | 0.00 | 37 | 1019.2 |
| 20260509185508 | 69 | 281 | 3.0 | 9.0 | 0.00 | 0.00 | 0.00 | 38 | 1019.2 |
| 20260509185004 | 69 | 335 | 3.0 | 9.0 | 0.00 | 0.00 | 0.00 | 37 | 1019.2 |
| 20260509184503 | 69 | 332 | 3.0 | 8.0 | 0.00 | 0.00 | 0.00 | 37 | 1019.2 |
| 20260509183958 | 70 | 340 | 2.0 | 9.0 | 0.00 | 0.00 | 0.00 | 38 | 1019.2 |
| 20260509183453 | 70 | 358 | 2.0 | 9.0 | 0.00 | 0.00 | 0.00 | 41 | 1019.2 |
| 20260509182949 | 69 | 320 | 2.0 | 7.0 | 0.00 | 0.00 | 0.00 | 38 | 1019.5 |
| 20260509182446 | 69 | 333 | 2.0 | 7.0 | 0.00 | 0.00 | 0.00 | 39 | 1019.5 |
| 20260509181944 | 69 | 332 | 2.0 | 9.0 | 0.00 | 0.00 | 0.00 | 37 | 1019.5 |
| 20260509181441 | 69 | 310 | 3.0 | 9.0 | 0.00 | 0.00 | 0.00 | 39 | 1019.5 |
| 20260509180939 | 68 | 327 | 4.0 | 9.0 | 0.00 | 0.00 | 0.00 | 39 | 1019.5 |
| 20260509180434 | 68 | 351 | 3.0 | 9.0 | 0.00 | 0.00 | 0.00 | 40 | 1019.5 |
| 20260509175931 | 68 | 292 | 3.0 | 9.0 | 0.00 | 0.00 | 0.00 | 39 | 1019.5 |
| 20260509175427 | 69 | 253 | 3.0 | 7.0 | 0.00 | 0.00 | 0.00 | 41 | 1019.5 |
| 20260509174923 | 68 | 302 | 4.0 | 13.0 | 0.00 | 0.00 | 0.00 | 43 | 1019.5 |
| 20260509174420 | 68 | 4 | 4.0 | 13.0 | 0.00 | 0.00 | 0.00 | 39 | 1019.5 |
| 20260509173915 | 67 | 324 | 3.0 | 9.0 | 0.00 | 0.00 | 0.00 | 40 | 1019.5 |
| 20260509173409 | 67 | 325 | 3.0 | 9.0 | 0.00 | 0.00 | 0.00 | 41 | 1019.5 |
| 20260509172906 | 68 | 321 | 3.0 | 9.0 | 0.00 | 0.00 | 0.00 | 41 | 1019.5 |
| 20260509172403 | 68 | 304 | 3.0 | 9.0 | 0.00 | 0.00 | 0.00 | 44 | 1019.5 |
| 20260509171859 | 67 | 355 | 3.0 | 10.0 | 0.00 | 0.00 | 0.00 | 42 | 1019.5 |
| 20260509171355 | 67 | 345 | 3.0 | 10.0 | 0.00 | 0.00 | 0.00 | 42 | 1019.5 |
| 20260509170852 | 66 | 346 | 3.0 | 8.0 | 0.00 | 0.00 | 0.00 | 44 | 1019.5 |
| 20260509170347 | 66 | 341 | 2.0 | 8.0 | 0.00 | 0.00 | 0.00 | 43 | 1019.5 |
| 20260509165842 | 65 | 327 | 3.0 | 13.0 | 0.00 | 0.00 | 0.00 | 46 | 1019.5 |
| 20260509165337 | 65 | 318 | 3.0 | 13.0 | 0.00 | 0.00 | 0.00 | 45 | 1019.5 |
| 20260509164833 | 64 | 316 | 3.0 | 9.0 | 0.00 | 0.00 | 0.00 | 47 | 1019.5 |
| 20260509164329 | 64 | 317 | 5.0 | 10.0 | 0.00 | 0.00 | 0.00 | 47 | 1019.5 |
| 20260509163826 | 63 | 335 | 4.0 | 10.0 | 0.00 | 0.00 | 0.00 | 46 | 1019.5 |
| 20260509163322 | 63 | 321 | 3.0 | 10.0 | 0.00 | 0.00 | 0.00 | 47 | 1019.5 |
| 20260509162821 | 63 | 296 | 3.0 | 8.0 | 0.00 | 0.00 | 0.00 | 47 | 1019.5 |
| 20260509162315 | 63 | 312 | 3.0 | 8.0 | 0.00 | 0.00 | 0.00 | 49 | 1019.5 |
| 20260509161811 | 62 | 320 | 2.0 | 7.0 | 0.00 | 0.00 | 0.00 | 52 | 1019.5 |
| 20260509161308 | 61 | 329 | 3.0 | 7.0 | 0.00 | 0.00 | 0.00 | 52 | 1019.5 |
| 20260509160803 | 61 | 316 | 3.0 | 8.0 | 0.00 | 0.00 | 0.00 | 54 | 1019.5 |
| 20260509160259 | 60 | 352 | 2.0 | 8.0 | 0.00 | 0.00 | 0.00 | 54 | 1019.5 |
| 20260509155754 | 60 | 326 | 2.0 | 7.0 | 0.00 | 0.00 | 0.00 | 54 | 1019.5 |
| 20260509155252 | 59 | 311 | 2.0 | 7.0 | 0.00 | 0.00 | 0.00 | 56 | 1019.5 |
| 20260509154747 | 57 | 320 | 1.0 | 5.0 | 0.00 | 0.00 | 0.00 | 58 | 1019.5 |
| 20260509154245 | 57 | 347 | 1.0 | 7.0 | 0.00 | 0.00 | 0.00 | 60 | 1019.5 |
| 20260509153741 | 55 | 320 | 1.0 | 7.0 | 0.00 | 0.00 | 0.00 | 62 | 1019.5 |
| 20260509153237 | 53 | 6 | 1.0 | 5.0 | 0.00 | 0.00 | 0.00 | 67 | 1019.5 |
| 20260509152734 | 52 | 335 | 2.0 | 5.0 | 0.00 | 0.00 | 0.00 | 71 | 1019.5 |
| 20260509152231 | 51 | 331 | 2.0 | 4.0 | 0.00 | 0.00 | 0.00 | 72 | 1019.5 |
| 20260509151728 | 50 | 337 | 2.0 | 4.0 | 0.00 | 0.00 | 0.00 | 75 | 1019.5 |
| 20260509151224 | 50 | 310 | 1.0 | 5.0 | 0.00 | 0.00 | 0.00 | 77 | 1019.5 |
| 20260509150722 | 49 | 340 | 1.0 | 5.0 | 0.00 | 0.00 | 0.00 | 80 | 1019.5 |
| 20260509150220 | 48 | 328 | 1.0 | 3.0 | 0.00 | 0.00 | 0.00 | 82 | 1019.2 |
| 20260509145717 | 48 | 335 | 1.0 | 3.0 | 0.00 | 0.00 | 0.00 | 84 | 1019.5 |
| 20260509145212 | 47 | 316 | 1.0 | 5.0 | 0.00 | 0.00 | 0.00 | 87 | 1019.5 |
| 20260509144708 | 47 | 334 | 1.0 | 5.0 | 0.00 | 0.00 | 0.00 | 88 | 1019.5 |
| 20260509144205 | 46 | 326 | 2.0 | 5.0 | 0.00 | 0.00 | 0.00 | 89 | 1019.5 |
| 20260509143703 | 46 | 328 | 1.0 | 5.0 | 0.00 | 0.00 | 0.00 | 90 | 1019.2 |
| 20260509143200 | 45 | 340 | 1.0 | 3.0 | 0.00 | 0.00 | 0.00 | 91 | 1019.2 |
| 20260509142655 | 45 | 315 | 1.0 | 3.0 | 0.00 | 0.00 | 0.00 | 91 | 1019.2 |
| 20260509142152 | 45 | 330 | 1.0 | 3.0 | 0.00 | 0.00 | 0.00 | 91 | 1019.2 |
| 20260509141648 | 44 | 339 | 1.0 | 3.0 | 0.00 | 0.00 | 0.00 | 91 | 1019.2 |
| 20260509141145 | 44 | 358 | 0.0 | 3.0 | 0.00 | 0.00 | 0.00 | 91 | 1019.2 |
| 20260509140641 | 44 | 288 | 0.0 | 0.0 | 0.00 | 0.00 | 0.00 | 91 | 1019.2 |
| 20260509140139 | 43 | 272 | 0.0 | 0.0 | 0.00 | 0.00 | 0.00 | 91 | 1019.2 |
| 20260509135636 | 43 | 272 | 0.0 | 0.0 | 0.00 | 0.00 | 0.00 | 91 | 1019.2 |
| 20260509135135 | 42 | 229 | 0.0 | 0.0 | 0.00 | 0.00 | 0.00 | 90 | 1019.2 |
| 20260509134631 | 42 | 229 | 0.0 | 0.0 | 0.00 | 0.00 | 0.00 | 90 | 1019.2 |
| 20260509134128 | 42 | 229 | 0.0 | 0.0 | 0.00 | 0.00 | 0.00 | 89 | 1019.2 |
| 20260509133625 | 41 | 229 | 0.0 | 0.0 | 0.00 | 0.00 | 0.00 | 89 | 1019.2 |
| 20260509133123 | 41 | 229 | 0.0 | 0.0 | 0.00 | 0.00 | 0.00 | 88 | 1019.2 |
| 20260509132621 | 41 | 229 | 0.0 | 0.0 | 0.00 | 0.00 | 0.00 | 87 | 1019.2 |
| 20260509132119 | 41 | 229 | 0.0 | 0.0 | 0.00 | 0.00 | 0.00 | 87 | 1019.2 |
| 20260509131614 | 41 | 226 | 0.0 | 0.0 | 0.00 | 0.00 | 0.00 | 86 | 1019.2 |
| 20260509131112 | 41 | 226 | 0.0 | 0.0 | 0.00 | 0.00 | 0.00 | 86 | 1018.9 |
| 20260509130607 | 41 | 226 | 0.0 | 0.0 | 0.00 | 0.00 | 0.00 | 86 | 1018.9 |
| 20260509130104 | 41 | 226 | 0.0 | 0.0 | 0.00 | 0.00 | 0.00 | 85 | 1018.9 |
| 20260509125601 | 41 | 226 | 0.0 | 0.0 | 0.00 | 0.00 | 0.00 | 85 | 1018.9 |
| 20260509125057 | 41 | 226 | 0.0 | 0.0 | 0.00 | 0.00 | 0.00 | 84 | 1018.9 |
| 20260509124554 | 41 | 226 | 0.0 | 0.0 | 0.00 | 0.00 | 0.00 | 84 | 1018.9 |
| 20260509124051 | 41 | 226 | 0.0 | 0.0 | 0.00 | 0.00 | 0.00 | 83 | 1018.9 |
| 20260509123549 | 41 | 226 | 0.0 | 0.0 | 0.00 | 0.00 | 0.00 | 83 | 1018.5 |
| 20260509123045 | 42 | 226 | 0.0 | 0.0 | 0.00 | 0.00 | 0.00 | 83 | 1018.9 |
| 20260509122541 | 42 | 239 | 0.0 | 0.0 | 0.00 | 0.00 | 0.00 | 82 | 1018.9 |
| 20260509122039 | 42 | 253 | 0.0 | 0.0 | 0.00 | 0.00 | 0.00 | 82 | 1018.9 |
| 20260509121535 | 42 | 329 | 0.0 | 0.0 | 0.00 | 0.00 | 0.00 | 81 | 1018.9 |
| 20260509121033 | 42 | 329 | 0.0 | 0.0 | 0.00 | 0.00 | 0.00 | 80 | 1018.5 |
| 20260509120531 | 43 | 329 | 0.0 | 0.0 | 0.00 | 0.00 | 0.00 | 80 | 1018.5 |
| 20260509120029 | 43 | 329 | 0.0 | 0.0 | 0.00 | 0.00 | 0.00 | 79 | 1018.5 |
| 20260509115525 | 43 | 329 | 0.0 | 0.0 | 0.00 | 0.00 | 0.00 | 78 | 1018.1 |
| 20260509115023 | 44 | 329 | 0.0 | 0.0 | 0.00 | 0.00 | 0.00 | 78 | 1018.1 |
| 20260509114521 | 44 | 329 | 0.0 | 0.0 | 0.00 | 0.00 | 0.00 | 77 | 1018.1 |
| 20260509114020 | 45 | 329 | 0.0 | 0.0 | 0.00 | 0.00 | 0.00 | 77 | 1018.1 |
| 20260509113518 | 45 | 329 | 0.0 | 0.0 | 0.00 | 0.00 | 0.00 | 76 | 1018.1 |
| 20260509113016 | 46 | 329 | 0.0 | 0.0 | 0.00 | 0.00 | 0.00 | 76 | 1018.1 |
| 20260509112512 | 47 | 329 | 0.0 | 1.0 | 0.00 | 0.00 | 0.00 | 77 | 1018.1 |
| 20260509112008 | 47 | 329 | 0.0 | 1.0 | 0.00 | 0.00 | 0.00 | 79 | 1018.1 |
| 20260509111506 | 48 | 329 | 0.0 | 0.0 | 0.00 | 0.00 | 0.00 | 80 | 1018.1 |
| 20260509111003 | 48 | 329 | 0.0 | 1.0 | 0.00 | 0.00 | 0.00 | 82 | 1018.1 |
| 20260509110459 | 48 | 329 | 0.0 | 2.0 | 0.00 | 0.00 | 0.00 | 82 | 1018.1 |
| 20260509105956 | 47 | 329 | 0.0 | 2.0 | 0.00 | 0.00 | 0.00 | 80 | 1018.1 |
| 20260509105455 | 47 | 329 | 0.0 | 2.0 | 0.00 | 0.00 | 0.00 | 73 | 1018.1 |
| 20260509104952 | 47 | 326 | 0.0 | 1.0 | 0.00 | 0.00 | 0.00 | 71 | 1018.1 |
| 20260509104449 | 46 | 326 | 0.0 | 0.0 | 0.00 | 0.00 | 0.00 | 70 | 1017.7 |
| 20260509103946 | 46 | 326 | 0.0 | 0.0 | 0.00 | 0.00 | 0.00 | 67 | 1017.7 |
| 20260509103443 | 46 | 326 | 0.0 | 2.0 | 0.00 | 0.00 | 0.00 | 66 | 1017.7 |
| 20260509102941 | 46 | 346 | 1.0 | 3.0 | 0.00 | 0.00 | 0.00 | 66 | 1017.7 |
| 20260509102439 | 47 | 4 | 1.0 | 3.0 | 0.00 | 0.00 | 0.00 | 65 | 1017.7 |
| 20260509101934 | 47 | 331 | 0.0 | 3.0 | 0.00 | 0.00 | 0.00 | 65 | 1017.7 |
| 20260509101431 | 47 | 307 | 0.0 | 1.0 | 0.00 | 0.00 | 0.00 | 64 | 1017.7 |
| 20260509100929 | 47 | 307 | 0.0 | 1.0 | 0.00 | 0.00 | 0.00 | 64 | 1017.7 |
| 20260509100426 | 47 | 307 | 0.0 | 0.0 | 0.00 | 0.00 | 0.00 | 64 | 1017.7 |
| 20260509095922 | 47 | 307 | 0.0 | 0.0 | 0.00 | 0.00 | 0.00 | 64 | 1017.7 |
| 20260509095419 | 48 | 307 | 0.0 | 0.0 | 0.00 | 0.00 | 0.00 | 64 | 1017.7 |
| 20260509094916 | 48 | 307 | 0.0 | 0.0 | 0.00 | 0.00 | 0.00 | 63 | 1017.7 |
| 20260509094413 | 48 | 307 | 0.0 | 0.0 | 0.00 | 0.00 | 0.00 | 64 | 1017.7 |
| 20260509093911 | 48 | 307 | 0.0 | 1.0 | 0.00 | 0.00 | 0.00 | 64 | 1017.7 |
| 20260509093408 | 48 | 307 | 0.0 | 1.0 | 0.00 | 0.00 | 0.00 | 64 | 1017.4 |
| 20260509092906 | 48 | 308 | 0.0 | 1.0 | 0.00 | 0.00 | 0.00 | 64 | 1017.4 |
| 20260509092403 | 48 | 308 | 0.0 | 1.0 | 0.00 | 0.00 | 0.00 | 64 | 1017.4 |
| 20260509091902 | 48 | 303 | 0.0 | 1.0 | 0.00 | 0.00 | 0.00 | 64 | 1017.4 |
| 20260509091358 | 49 | 302 | 0.0 | 0.0 | 0.00 | 0.00 | 0.00 | 63 | 1017.4 |
| 20260509090855 | 49 | 302 | 0.0 | 0.0 | 0.00 | 0.00 | 0.00 | 64 | 1017.4 |
| 20260509090353 | 49 | 302 | 0.0 | 0.0 | 0.00 | 0.00 | 0.00 | 64 | 1017.4 |
| 20260509085850 | 49 | 302 | 0.0 | 1.0 | 0.00 | 0.00 | 0.00 | 64 | 1017.4 |
| 20260509085347 | 49 | 302 | 0.0 | 1.0 | 0.00 | 0.00 | 0.00 | 64 | 1017.1 |
| 20260509084843 | 49 | 304 | 0.0 | 1.0 | 0.00 | 0.00 | 0.00 | 64 | 1017.4 |
| 20260509084340 | 49 | 304 | 0.0 | 2.0 | 0.00 | 0.00 | 0.00 | 64 | 1017.1 |
| 20260509083838 | 50 | 304 | 0.0 | 2.0 | 0.00 | 0.00 | 0.00 | 64 | 1017.1 |
| 20260509083335 | 50 | 212 | 0.0 | 1.0 | 0.00 | 0.00 | 0.00 | 63 | 1017.1 |
| 20260509082831 | 50 | 212 | 0.0 | 2.0 | 0.00 | 0.00 | 0.00 | 64 | 1017.1 |
| 20260509082328 | 50 | 218 | 0.0 | 1.0 | 0.00 | 0.00 | 0.00 | 64 | 1017.1 |
| 20260509081826 | 50 | 0 | 0.0 | 1.0 | 0.00 | 0.00 | 0.00 | 64 | 1017.1 |
| 20260509081322 | 50 | 0 | 0.0 | 1.0 | 0.00 | 0.00 | 0.00 | 63 | 1017.1 |
| 20260509080821 | 50 | 0 | 0.0 | 1.0 | 0.00 | 0.00 | 0.00 | 63 | 1017.1 |
| 20260509080318 | 51 | 0 | 0.0 | 0.0 | 0.00 | 0.00 | 0.00 | 63 | 1017.1 |
| 20260509075816 | 51 | 0 | 0.0 | 1.0 | 0.00 | 0.00 | 0.00 | 63 | 1017.1 |
| 20260509075313 | 51 | 0 | 0.0 | 1.0 | 0.00 | 0.00 | 0.00 | 63 | 1017.1 |
| 20260509074810 | 51 | 339 | 0.0 | 0.0 | 0.00 | 0.00 | 0.00 | 63 | 1017.1 |
| 20260509074308 | 51 | 339 | 0.0 | 0.0 | 0.00 | 0.00 | 0.00 | 62 | 1016.6 |
| 20260509073804 | 51 | 339 | 0.0 | 1.0 | 0.00 | 0.00 | 0.00 | 63 | 1016.6 |
| 20260509073300 | 51 | 339 | 0.0 | 1.0 | 0.00 | 0.00 | 0.00 | 63 | 1016.6 |
| 20260509072757 | 52 | 339 | 0.0 | 1.0 | 0.00 | 0.00 | 0.00 | 63 | 1016.6 |
| 20260509072253 | 52 | 339 | 0.0 | 1.0 | 0.00 | 0.00 | 0.00 | 62 | 1016.3 |
| 20260509071750 | 52 | 339 | 0.0 | 0.0 | 0.00 | 0.00 | 0.00 | 62 | 1016.3 |
| 20260509071247 | 52 | 339 | 0.0 | 1.0 | 0.00 | 0.00 | 0.00 | 61 | 1016.3 |
| 20260509070744 | 53 | 339 | 0.0 | 1.0 | 0.00 | 0.00 | 0.00 | 61 | 1016.3 |
| 20260509070241 | 53 | 339 | 0.0 | 1.0 | 0.00 | 0.00 | 0.00 | 61 | 1016.3 |
| 20260509065737 | 53 | 339 | 0.0 | 1.0 | 0.00 | 0.00 | 0.00 | 61 | 1016.0 |
| 20260509065234 | 53 | 339 | 0.0 | 0.0 | 0.00 | 0.00 | 0.00 | 61 | 1016.0 |
| 20260509064730 | 53 | 339 | 0.0 | 1.0 | 0.00 | 0.00 | 0.00 | 61 | 1016.0 |
| 20260509064228 | 53 | 339 | 0.0 | 1.0 | 0.00 | 0.00 | 0.00 | 60 | 1016.0 |
| 20260509063725 | 54 | 339 | 0.0 | 1.0 | 0.00 | 0.00 | 0.00 | 60 | 1015.5 |
| 20260509063221 | 54 | 339 | 0.0 | 1.0 | 0.00 | 0.00 | 0.00 | 59 | 1015.5 |
| 20260509062718 | 54 | 339 | 0.0 | 1.0 | 0.00 | 0.00 | 0.00 | 58 | 1015.5 |
| 20260509062215 | 54 | 339 | 0.0 | 1.0 | 0.00 | 0.00 | 0.00 | 58 | 1015.5 |
| 20260509061712 | 55 | 339 | 0.0 | 1.0 | 0.00 | 0.00 | 0.00 | 57 | 1015.5 |
| 20260509061210 | 55 | 339 | 0.0 | 0.0 | 0.00 | 0.00 | 0.00 | 57 | 1015.2 |
| 20260509060707 | 55 | 339 | 0.0 | 0.0 | 0.00 | 0.00 | 0.00 | 57 | 1015.2 |
| 20260509060203 | 55 | 339 | 0.0 | 0.0 | 0.00 | 0.00 | 0.00 | 56 | 1015.2 |
| 20260509055659 | 56 | 339 | 0.0 | 0.0 | 0.00 | 0.00 | 0.00 | 56 | 1015.2 |
| 20260509055155 | 56 | 339 | 0.0 | 0.0 | 0.00 | 0.00 | 0.00 | 55 | 1015.2 |
| 20260509054652 | 56 | 339 | 0.0 | 0.0 | 0.00 | 0.00 | 0.00 | 55 | 1015.2 |
| 20260509054149 | 57 | 339 | 0.0 | 0.0 | 0.00 | 0.00 | 0.00 | 55 | 1015.2 |
| 20260509053648 | 57 | 339 | 0.0 | 0.0 | 0.00 | 0.00 | 0.00 | 54 | 1014.8 |
| 20260509053144 | 57 | 339 | 0.0 | 1.0 | 0.00 | 0.00 | 0.00 | 54 | 1014.8 |
| 20260509052642 | 57 | 339 | 0.0 | 1.0 | 0.00 | 0.00 | 0.00 | 54 | 1014.8 |
| 20260509052139 | 58 | 339 | 0.0 | 1.0 | 0.00 | 0.00 | 0.00 | 54 | 1014.8 |
| 20260509051637 | 58 | 339 | 0.0 | 1.0 | 0.00 | 0.00 | 0.00 | 54 | 1014.5 |
| 20260509051134 | 59 | 339 | 0.0 | 1.0 | 0.00 | 0.00 | 0.00 | 54 | 1014.5 |
| 20260509050631 | 59 | 339 | 0.0 | 1.0 | 0.00 | 0.00 | 0.00 | 53 | 1014.5 |
| 20260509050127 | 59 | 339 | 0.0 | 1.0 | 0.00 | 0.00 | 0.00 | 52 | 1014.5 |
| 20260509045626 | 60 | 347 | 0.0 | 1.0 | 0.00 | 0.00 | 0.00 | 51 | 1014.5 |
| 20260509045122 | 60 | 347 | 0.0 | 0.0 | 0.00 | 0.00 | 0.00 | 51 | 1014.5 |
| 20260509044619 | 60 | 347 | 0.0 | 1.0 | 0.00 | 0.00 | 0.00 | 50 | 1014.5 |
| 20260509044117 | 61 | 347 | 0.0 | 1.0 | 0.00 | 0.00 | 0.00 | 50 | 1014.1 |
| 20260509043613 | 61 | 6 | 0.0 | 0.0 | 0.00 | 0.00 | 0.00 | 51 | 1014.1 |
| 20260509043108 | 62 | 6 | 0.0 | 0.0 | 0.00 | 0.00 | 0.00 | 50 | 1014.1 |
| 20260509042605 | 62 | 6 | 0.0 | 0.0 | 0.00 | 0.00 | 0.00 | 50 | 1014.5 |
| 20260509042101 | 62 | 6 | 0.0 | 0.0 | 0.00 | 0.00 | 0.00 | 49 | 1014.1 |
| 20260509041558 | 63 | 6 | 0.0 | 0.0 | 0.00 | 0.00 | 0.00 | 49 | 1014.1 |
| 20260509041055 | 64 | 6 | 0.0 | 1.0 | 0.00 | 0.00 | 0.00 | 48 | 1013.7 |
| 20260509040554 | 64 | 6 | 1.0 | 3.0 | 0.00 | 0.00 | 0.00 | 46 | 1013.7 |
| 20260509040050 | 64 | 6 | 1.0 | 3.0 | 0.00 | 0.00 | 0.00 | 45 | 1013.7 |
| 20260509035547 | 65 | 1 | 1.0 | 3.0 | 0.00 | 0.00 | 0.00 | 45 | 1013.4 |
| 20260509035044 | 65 | 8 | 1.0 | 3.0 | 0.00 | 0.00 | 0.00 | 44 | 1013.4 |
| 20260509034542 | 66 | 8 | 1.0 | 3.0 | 0.00 | 0.00 | 0.00 | 42 | 1013.4 |
| 20260509034039 | 66 | 0 | 2.0 | 5.0 | 0.00 | 0.00 | 0.00 | 41 | 1013.4 |
| 20260509033536 | 66 | 0 | 2.0 | 5.0 | 0.00 | 0.00 | 0.00 | 40 | 1012.9 |
| 20260509033032 | 66 | 348 | 2.0 | 5.0 | 0.00 | 0.00 | 0.00 | 40 | 1012.9 |
| 20260509032530 | 67 | 341 | 1.0 | 5.0 | 0.00 | 0.00 | 0.00 | 41 | 1012.9 |
| 20260509032027 | 68 | 348 | 0.0 | 1.0 | 0.00 | 0.00 | 0.00 | 41 | 1012.9 |
| 20260509031524 | 68 | 348 | 0.0 | 0.0 | 0.00 | 0.00 | 0.00 | 39 | 1012.9 |
| 20260509031022 | 69 | 348 | 0.0 | 0.0 | 0.00 | 0.00 | 0.00 | 37 | 1012.9 |
| 20260509030520 | 70 | 348 | 0.0 | 0.0 | 0.00 | 0.00 | 0.00 | 36 | 1012.9 |
| 20260509030016 | 70 | 348 | 0.0 | 0.0 | 0.00 | 0.00 | 0.00 | 35 | 1012.9 |
| 20260509025512 | 71 | 348 | 0.0 | 0.0 | 0.00 | 0.00 | 0.00 | 35 | 1012.6 |
| 20260509025008 | 71 | 348 | 0.0 | 1.0 | 0.00 | 0.00 | 0.00 | 34 | 1012.6 |
| 20260509024504 | 72 | 348 | 0.0 | 2.0 | 0.00 | 0.00 | 0.00 | 33 | 1012.6 |
| 20260509024000 | 72 | 348 | 1.0 | 5.0 | 0.00 | 0.00 | 0.00 | 32 | 1012.6 |
| 20260509023458 | 72 | 348 | 1.0 | 5.0 | 0.00 | 0.00 | 0.00 | 31 | 1012.6 |
| 20260509022949 | 73 | 334 | 2.0 | 5.0 | 0.00 | 0.00 | 0.00 | 31 | 1012.6 |
| 20260509022446 | 73 | 355 | 2.0 | 5.0 | 0.00 | 0.00 | 0.00 | 31 | 1012.6 |
| 20260509021943 | 73 | 348 | 3.0 | 6.0 | 0.00 | 0.00 | 0.00 | 31 | 1012.6 |
| 20260509021440 | 73 | 343 | 3.0 | 6.0 | 0.00 | 0.00 | 0.00 | 31 | 1012.6 |
| 20260509020938 | 73 | 327 | 3.0 | 7.0 | 0.00 | 0.00 | 0.00 | 31 | 1012.3 |
| 20260509020436 | 73 | 341 | 3.0 | 8.0 | 0.00 | 0.00 | 0.00 | 30 | 1012.3 |
| 20260509015932 | 74 | 356 | 3.0 | 8.0 | 0.00 | 0.00 | 0.00 | 29 | 1012.3 |
| 20260509015431 | 74 | 353 | 3.0 | 8.0 | 0.00 | 0.00 | 0.00 | 29 | 1012.3 |
| 20260509014927 | 74 | 348 | 2.0 | 7.0 | 0.00 | 0.00 | 0.00 | 29 | 1012.3 |
| 20260509014424 | 74 | 343 | 2.0 | 7.0 | 0.00 | 0.00 | 0.00 | 28 | 1012.3 |
| 20260509013920 | 75 | 346 | 2.0 | 8.0 | 0.00 | 0.00 | 0.00 | 28 | 1012.3 |
| 20260509013418 | 75 | 4 | 2.0 | 8.0 | 0.00 | 0.00 | 0.00 | 28 | 1012.3 |
| 20260509012913 | 75 | 340 | 2.0 | 8.0 | 0.00 | 0.00 | 0.00 | 28 | 1012.3 |
| 20260509012410 | 75 | 338 | 3.0 | 8.0 | 0.00 | 0.00 | 0.00 | 28 | 1012.3 |
| 20260509011907 | 75 | 358 | 2.0 | 8.0 | 0.00 | 0.00 | 0.00 | 27 | 1012.3 |
| 20260509011405 | 75 | 0 | 3.0 | 8.0 | 0.00 | 0.00 | 0.00 | 27 | 1012.3 |
| 20260509010903 | 76 | 322 | 3.0 | 8.0 | 0.00 | 0.00 | 0.00 | 27 | 1012.3 |
| 20260509010400 | 76 | 338 | 3.0 | 10.0 | 0.00 | 0.00 | 0.00 | 26 | 1012.3 |
| 20260509005856 | 75 | 330 | 4.0 | 10.0 | 0.00 | 0.00 | 0.00 | 27 | 1012.3 |
| 20260509005354 | 75 | 328 | 3.0 | 8.0 | 0.00 | 0.00 | 0.00 | 29 | 1012.3 |
| 20260509004849 | 75 | 341 | 3.0 | 9.0 | 0.00 | 0.00 | 0.00 | 27 | 1012.3 |
| 20260509004345 | 75 | 354 | 3.0 | 9.0 | 0.00 | 0.00 | 0.00 | 27 | 1012.6 |
| 20260509003843 | 75 | 16 | 3.0 | 9.0 | 0.00 | 0.00 | 0.00 | 28 | 1012.6 |
| 20260509003340 | 75 | 12 | 4.0 | 9.0 | 0.00 | 0.00 | 0.00 | 28 | 1012.6 |
| 20260509002837 | 75 | 344 | 4.0 | 7.0 | 0.00 | 0.00 | 0.00 | 26 | 1012.6 |
| 20260509002335 | 75 | 329 | 3.0 | 9.0 | 0.00 | 0.00 | 0.00 | 26 | 1012.9 |
| 20260509001833 | 75 | 358 | 4.0 | 9.0 | 0.00 | 0.00 | 0.00 | 26 | 1012.9 |
| 20260509001328 | 75 | 354 | 4.0 | 11.0 | 0.00 | 0.00 | 0.00 | 25 | 1012.9 |
| 20260509000826 | 75 | 14 | 4.0 | 11.0 | 0.00 | 0.00 | 0.00 | 25 | 1012.9 |
| 20260509000325 | 75 | 319 | 4.0 | 11.0 | 0.00 | 0.00 | 0.00 | 25 | 1012.9 |
| 20260508235820 | 75 | 334 | 3.0 | 11.0 | 0.00 | 0.00 | 0.00 | 25 | 1012.9 |
| 20260508235317 | 75 | 323 | 4.0 | 10.0 | 0.00 | 0.00 | 0.00 | 27 | 1012.9 |
| 20260508234814 | 75 | 310 | 5.0 | 11.0 | 0.00 | 0.00 | 0.00 | 26 | 1012.9 |
| 20260508234310 | 75 | 6 | 5.0 | 11.0 | 0.00 | 0.00 | 0.00 | 26 | 1012.9 |
| 20260508233809 | 75 | 336 | 3.0 | 8.0 | 0.00 | 0.00 | 0.00 | 26 | 1012.9 |
| 20260508233308 | 75 | 329 | 2.0 | 8.0 | 0.00 | 0.00 | 0.00 | 27 | 1012.9 |
| 20260508232805 | 74 | 329 | 4.0 | 10.0 | 0.00 | 0.00 | 0.00 | 26 | 1012.9 |
| 20260508232301 | 74 | 34 | 4.0 | 10.0 | 0.00 | 0.00 | 0.00 | 26 | 1012.9 |
| 20260508231800 | 74 | 310 | 3.0 | 9.0 | 0.00 | 0.00 | 0.00 | 26 | 1012.9 |
| 20260508231255 | 74 | 315 | 5.0 | 9.0 | 0.00 | 0.00 | 0.00 | 25 | 1012.9 |
| 20260508230752 | 74 | 13 | 5.0 | 9.0 | 0.00 | 0.00 | 0.00 | 25 | 1012.9 |
| 20260508230248 | 74 | 357 | 4.0 | 10.0 | 0.00 | 0.00 | 0.00 | 25 | 1012.9 |
| 20260508225746 | 75 | 340 | 4.0 | 10.0 | 0.00 | 0.00 | 0.00 | 25 | 1012.9 |
| 20260508225242 | 74 | 309 | 3.0 | 10.0 | 0.00 | 0.00 | 0.00 | 25 | 1012.9 |